Showing default

YAOGAN-30 C, 42947

Orbit data source: Space-Track

YAOGAN-30 C, 42947 is a payload satellite owned by PLA SSF (CN) in LEO that was launched on Fri, 29 Sep 2017 UTC via a CHANG ZHENG 2C launch vehicle from the Xichang Space Center, China (XSC). Payloads include a variety of satellites, spacecraft, and rockets equipped with specific instruments for various scientific and technological missions. These include communications satellites like Starlink; space stations such as the ISS; scientific satellites like the Hubble; Earth observation satellites from companies like Planet Labs, Umbra, and HawkEye 360; GPS; miniature CubeSats for education and research; and military/defense satellites.

Loading next visibility...
YAOGAN-30 C details
Identifier
42947, 2017-058C
Orbit
LEO
Last TLE update4 hours ago
Origin
Flag of CNPLA SSF (CN / PRC)
ManufacturerSECM
MissionOperational Defense Sigint
Bus & MotorUnknown
Mass~500 kg wet, ~500 kg dry
Launch date (UTC)
2017-09-29 (7 years ago)
Launch vehicle
CHANG ZHENG 2C
Launch site
Xichang Space Center, China (XSC)
Object type
Payload
Rocket body
Debris
Shape & HBRBox + 2 Pan, 1 m
Radar Cross Section0.446 m², Large (>1 m²)

Expand to show TLE details & history

TLE from 4 hours ago
0 YAOGAN-30 C
1 42947U 17058C   24361.23422230  .00008772  00000-0  71039-3 0  9998
2 42947  34.9984  56.5231 0006617 183.3191 176.7473 14.99031285395029
Epoch: 2024-12-26T05:37Z
Definitive object data (Epoch: 2024-12-26T05:37:16.806Z)
Latitude-0.00003°
Longitude-123.01351°
Altitude573.396 km
Speed7.574 km/s
True Right ascension03h 46m 05s
True Declination0° 00' 00"
Sunlit
Object was in full shadow at TLE epoch
Visualization TLE readout
Latitude-32.38564°
Longitude171.57096°
Altitude579.295 km
Speed7.571 km/s
Apparent Right ascension22h 31m 34s
Apparent Declination-36° 41' 53"
Sunlit
Object is in daylight
Visualization observer readout
Local Sidereal Time09:27:51
Azimuth279.39° WNW
Elevation-77.114°
Doppler factor1
Orbital elements
Apogee altitude577.704 km
Perigee altitude568.505 km
Semi-major axis6,951.241 km
Eccentricity0.0006617
Inclination34.9984°
RAAN56.5231°
Arg. of periapsis183.3191°
True anomaly176.7516°
Mean anomaly176.7473°
Eccentric anomaly176.74945°
Mean motion3.74498 °/min
BSTAR0.00071039
Orbital period96.13 mins
Loading maneuver chart data...
Loading historical data...
Loading historical data...
Loading historical data...
Loading historical data...
Loading historical data...
Loading historical data...
Loading historical data...
Other satellites on launch #58 in the year 2017 (2017-09-29 UTC)

YAOGAN-30 C Visibility forecast

Observer location: undefined°, undefined

Span
Click to sort rows by Start time (UTC) header in descending order
Start Az.
Max El. time (UTC)
Max El. Az.
Max El.
End time (UTC)
End Az.
7 mins2024-12-26 10:46:43.963Z254.084° W2024-12-26 10:50:43.963Z177.923° S33.299°2024-12-26 10:53:43.963Z119.073° SE
5 mins2024-12-26 12:29:43.963Z236.152° WSW2024-12-26 12:31:43.963Z196.932° SSW21.802°2024-12-26 12:34:43.963Z148.762° SSE
4 mins2024-12-27 07:26:43.963Z189.782° SSW2024-12-27 07:28:43.963Z152.04° SSE19.84°2024-12-27 07:30:43.963Z118.641° SE
6 mins2024-12-27 09:06:43.963Z234.282° WSW2024-12-27 09:09:43.963Z161.944° S32.369°2024-12-27 09:12:43.963Z107.822° ESE
|